EHI
0 0 0 0 0 1 1 1 0 0 1 2 2 3 2 1 0 1 1 3 8 12 13 15 19 17 12 12 12 11 9 9 9 12 14 14 16 16 15 12 10 7 4 3 1 0 0 0 0
0 0 0 0 0 0 0 0 1 1 0 1 2 3 2 1 0 1 1 4 9 12 13 16 19 17 12 10 10 9 8 6 7 10 13 13 13 12 11 9 9 7 4 2 1 0 0 0 0
0 0 0 0 0 0 0 1 2 2 1 1 1 2 1 1 1 1 2 6 8 10 13 17 21 18 12 9 8 7 5 4 4 7 10 10 8 8 7 7 7 6 3 1 1 0 0 0 0
0 0 0 0 0 0 0 1 3 3 2 1 1 2 3 4 6 5 6 6 7 8 11 18 23 21 14 10 8 6 4 2 2 3 5 5 6 7 7 6 5 4 2 0 0 0 0 0 0
0 0 0 0 0 0 0 1 3 4 3 1 1 2 3 7 11 11 8 6 6 8 11 17 23 21 15 12 9 6 3 2 2 1 1 2 4 6 6 6 5 3 2 1 0 1 1 1 0
0 0 0 0 0 0 1 2 3 3 3 2 2 2 3 7 12 10 7 6 7 9 12 17 20 19 16 14 11 7 4 3 2 1 0 1 2 3 6 6 5 4 3 1 0 1 2 1 1
0 0 0 0 0 1 1 1 2 3 4 4 3 3 2 6 9 7 6 8 10 11 14 16 15 15 15 14 11 9 8 6 2 0 0 0 0 2 4 5 5 5 3 2 1 1 1 1 0
0 0 0 0 0 0 0 1 2 3 4 5 4 3 3 7 11 10 10 13 14 14 15 15 12 12 12 12 10 9 9 6 2 0 0 0 0 1 1 2 3 5 5 4 3 2 1 0 0
0 0 0 0 0 0 0 1 1 2 4 5 5 5 7 13 18 19 18 19 19 17 16 15 13 11 11 10 9 9 7 5 2 0 0 0 0 0 0 1 3 5 7 7 6 4 3 2 1
0 0 0 0 0 0 0 1 2 3 5 6 7 9 12 17 23 25 25 25 23 19 17 14 12 12 12 10 9 8 6 4 1 0 0 0 0 0 0 1 3 6 8 9 8 7 6 5 4
0 0 0 0 0 0 0 1 3 5 6 7 11 14 15 17 21 25 27 25 24 21 17 13 12 12 12 11 9 8 7 5 1 0 0 1 1 0 0 1 3 5 7 9 9 8 7 6 5
0 0 0 0 0 0 1 2 3 5 6 9 13 17 19 18 19 22 24 24 24 23 19 16 13 11 10 10 9 9 8 5 2 1 1 2 2 1 0 1 1 2 4 7 8 7 6 5 4
0 0 0 1 1 1 2 3 4 6 7 10 14 18 20 19 17 18 21 24 25 25 24 21 17 13 11 10 10 10 8 5 3 2 2 3 2 1 1 0 0 1 2 4 5 6 5 4 3
0 0 0 1 1 1 3 5 6 8 9 10 14 18 19 17 15 15 20 23 25 26 27 26 22 18 15 12 10 10 8 5 3 3 4 4 4 4 3 2 1 1 1 2 3 4 4 3 2
0 0 0 0 0 1 3 5 6 8 9 10 14 18 17 14 13 15 19 22 24 26 27 28 26 23 21 16 10 9 7 5 3 3 4 6 6 6 6 5 4 3 2 2 2 2 1 1 1
0 0 0 0 0 0 2 4 6 8 8 9 12 16 16 14 12 14 18 21 24 27 29 29 28 26 24 18 11 8 7 5 4 5 6 7 8 9 8 7 7 4 2 1 1 1 0 0 0
0 0 0 0 0 0 1 3 6 8 8 8 10 13 16 16 14 15 17 20 23 28 30 31 31 29 26 20 13 10 8 7 7 8 8 8 9 10 10 8 6 4 1 0 0 0 0 0 0
0 0 0 0 0 0 2 4 6 8 9 9 10 13 16 17 15 16 18 21 24 28 31 33 33 32 28 22 18 14 11 10 11 11 9 7 9 11 10 8 5 3 1 0 0 0 0 0 0
0 0 0 0 0 1 3 4 5 6 9 10 11 14 16 16 16 18 20 23 26 29 33 34 34 33 30 27 23 19 15 13 13 11 8 7 9 10 9 6 4 3 2 1 0 0 0 0 0
0 0 0 0 1 2 4 4 3 5 8 9 10 12 15 17 19 19 20 22 27 31 34 35 33 31 30 29 25 20 17 14 12 10 8 8 9 10 8 6 5 4 3 2 1 1 0 0 0
0 0 0 0 2 3 3 2 3 5 8 9 10 13 17 20 21 20 18 20 27 32 33 33 30 28 28 29 26 21 17 15 12 10 9 9 9 9 8 6 4 3 3 3 3 2 1 1 1
0 0 0 0 1 1 1 1 2 5 9 11 13 16 19 20 20 19 16 19 27 32 33 31 29 28 28 29 28 23 20 17 14 12 10 8 7 7 6 5 3 3 3 3 3 3 3 2 2
0 0 0 0 0 0 0 0 1 4 8 11 14 17 18 19 18 15 14 19 26 32 32 29 28 28 28 28 27 26 22 18 16 16 13 8 6 6 6 4 3 3 3 2 1 2 2 2 2
0 0 0 0 0 0 0 0 1 3 6 9 13 17 18 18 17 15 16 19 25 30 30 28 26 27 27 27 26 25 22 17 16 16 14 9 6 5 5 4 3 3 3 2 1 1 1 1 2
0 0 0 0 0 0 0 0 1 3 5 8 14 18 18 17 18 19 18 20 24 27 28 26 24 25 25 25 25 23 20 16 14 14 12 8 6 5 5 5 4 3 2 1 0 0 0 1 2
0 0 0 0 0 0 0 1 4 7 9 11 16 19 18 17 17 18 18 19 21 23 23 23 22 22 21 21 21 21 20 17 13 10 9 7 6 5 4 4 3 1 1 0 0 0 0 0 1
0 0 0 0 0 0 0 2 8 11 13 15 17 18 16 14 14 14 15 15 16 17 18 19 20 19 18 16 17 18 18 16 12 8 7 6 5 5 4 4 3 1 0 0 0 0 0 0 0
0 0 0 0 0 0 0 2 7 11 13 16 16 14 12 11 10 11 11 11 11 12 14 15 16 16 15 13 12 13 13 12 10 7 6 5 3 3 4 5 4 2 0 0 0 0 0 0 0
0 0 0 0 0 0 0 1 4 8 10 12 12 11 9 9 9 9 8 8 9 9 9 10 11 11 11 9 7 7 8 7 5 5 4 3 1 2 4 6 5 3 1 0 0 0 0 0 0
0 0 0 0 0 0 0 0 2 5 7 9 9 9 8 8 8 8 7 7 7 7 7 7 7 7 6 4 3 5 5 4 3 3 3 2 0 1 4 6 6 4 2 1 0 0 0 0 0
Wind_Speed
3 2 1 2 4 4 1 2 1 5 5 5 7 10 9 6 5 5 4 11 13 10 8 10 12 12 12 11 11 10 10 10 10 10 10 10 10 10 10 10 9 8 8 8 8 8 8 8 7
1 1 2 4 5 2 3 2 3 5 6 7 8 9 9 7 7 9 6 10 13 11 8 9 12 12 12 11 10 10 10 10 10 10 11 10 10 9 9 9 9 8 8 8 8 7 7 7 7
2 1 3 4 2 3 2 0 3 4 5 6 5 5 6 6 8 7 8 13 11 9 7 9 14 13 12 11 10 10 10 9 9 9 10 9 9 8 8 8 8 8 7 7 7 7 7 6 6
1 3 4 4 2 4 4 2 2 4 4 5 8 6 5 5 6 10 15 14 12 9 7 9 13 13 12 11 10 10 9 9 8 8 8 8 8 8 7 8 8 7 7 6 7 6 6 5 5
3 4 4 2 3 3 3 2 2 4 3 6 9 8 5 4 13 16 15 14 13 9 6 8 12 12 11 11 10 9 9 8 8 7 7 7 6 6 6 6 7 6 6 6 5 5 5 5 5
3 4 3 1 3 3 1 3 4 6 6 7 9 7 4 8 14 14 13 12 12 11 8 7 11 12 11 10 10 9 8 8 7 6 6 6 5 5 5 5 6 5 5 5 5 5 4 4 4
3 3 2 2 2 2 1 3 4 5 5 4 7 7 5 7 11 12 11 11 10 10 8 6 6 8 10 10 9 9 8 7 6 6 6 5 5 5 5 5 5 5 4 4 5 5 4 4 3
5 3 1 1 1 2 1 2 3 5 4 6 6 8 7 8 11 11 10 9 9 8 7 6 5 5 5 6 9 9 8 7 6 6 5 5 5 5 5 4 4 4 4 4 4 4 4 3 3
3 3 2 3 3 2 0 3 1 4 7 4 4 7 10 13 13 12 9 7 7 7 5 6 5 5 4 4 6 7 7 6 5 4 5 4 2 2 2 3 3 3 3 3 3 3 3 2 2
4 3 7 5 4 2 1 3 2 4 6 6 6 8 12 13 13 13 12 10 9 8 6 5 6 5 5 4 4 2 3 3 2 2 3 2 1 1 2 2 3 2 2 1 2 2 2 1 0
3 6 6 4 5 3 1 1 3 7 4 7 12 13 12 12 11 11 10 10 10 9 8 7 6 6 5 3 3 2 1 2 1 2 2 2 1 1 1 0 1 1 1 1 1 1 1 1 1
3 6 5 4 3 3 2 2 2 4 6 10 14 16 14 12 11 11 10 9 8 8 8 7 7 6 4 3 3 3 2 2 2 2 2 2 1 1 1 1 1 1 0 0 0 0 1 1 1
4 6 6 4 2 2 2 2 3 3 7 9 13 14 13 12 10 9 9 9 8 7 7 8 7 6 4 4 3 3 3 3 3 2 2 2 2 2 1 1 1 1 1 1 0 0 1 1 1
5 5 4 2 2 2 3 1 1 4 8 9 11 12 12 12 10 9 9 8 8 8 7 7 8 7 6 4 3 3 3 2 2 2 2 3 2 2 2 1 1 0 0 1 1 1 1 1 1
3 3 4 2 2 3 4 1 4 6 8 9 10 11 11 10 10 10 11 10 10 9 7 7 7 7 6 5 3 3 3 3 2 2 2 3 2 2 2 2 1 0 0 1 1 1 1 1 1
4 3 3 6 2 3 5 5 7 6 8 9 10 10 10 9 10 10 11 9 10 9 8 7 7 7 6 5 3 2 2 3 2 2 2 2 2 3 2 2 1 0 1 1 1 1 1 1 1
3 2 4 7 4 3 4 5 7 7 9 9 9 10 10 8 8 8 10 10 11 10 9 8 6 7 6 5 3 3 2 2 2 2 2 2 2 3 3 2 1 1 1 1 1 1 1 1 1
4 4 5 6 5 3 4 6 7 6 8 9 9 8 9 10 10 10 10 10 9 9 9 8 7 6 5 4 3 2 2 1 1 2 2 2 2 2 3 2 1 1 1 1 1 1 0 1 0
6 5 7 8 6 2 4 5 7 6 5 7 7 7 8 9 8 8 8 8 8 7 7 7 7 5 4 3 3 2 2 1 1 1 2 2 2 2 2 1 1 1 1 1 1 1 1 1 1
7 6 7 7 5 2 3 5 4 3 6 7 8 7 7 5 4 5 7 8 8 9 8 8 7 6 5 4 3 3 3 2 2 1 1 2 2 2 2 2 1 1 1 1 1 1 1 0 1
7 7 7 6 4 2 2 3 3 2 0 2 4 5 6 8 8 6 6 7 8 8 8 8 7 6 5 5 3 3 2 2 2 1 0 1 1 2 2 2 2 1 2 2 2 2 2 1 1
7 8 5 3 1 3 2 2 6 3 0 2 2 4 5 6 6 6 6 7 8 8 8 7 7 6 5 5 5 5 4 2 2 1 1 0 0 1 1 1 2 2 1 1 2 2 1 2 1
8 6 3 2 2 1 1 2 6 2 1 2 3 4 4 5 6 6 6 7 6 6 7 7 6 5 5 5 5 5 3 2 1 1 1 1 0 0 1 1 1 1 1 1 1 1 1 2 2
4 2 4 4 4 1 4 3 5 3 5 3 2 3 4 5 5 6 5 6 6 6 5 5 5 4 4 5 5 5 5 3 3 2 2 1 1 1 1 0 0 1 1 1 1 2 2 2 2
3 5 4 5 4 5 4 3 5 5 3 5 6 5 5 5 6 7 7 6 5 5 5 5 6 4 3 4 4 4 5 5 5 4 3 2 1 1 2 1 1 1 1 2 2 1 1 2 2
3 9 8 5 5 5 2 2 4 3 1 4 6 7 7 6 6 7 6 6 5 5 5 5 5 4 3 3 3 3 3 3 2 3 2 2 2 2 2 1 1 2 2 2 2 2 2 2 2
4 4 8 7 3 1 2 2 3 4 4 5 6 6 6 6 6 6 6 5 5 5 4 5 5 4 3 2 2 2 2 2 2 2 2 1 1 1 1 1 2 2 2 2 2 2 3 2 2
6 6 5 5 4 3 3 3 3 3 3 4 4 5 5 5 5 5 5 5 4 4 4 4 5 4 3 3 2 2 2 2 3 2 2 2 1 1 1 1 2 2 1 2 2 2 2 2 2
1 2 4 4 5 5 3 5 5 8 8 8 7 6 5 5 6 5 5 4 4 4 3 4 4 4 3 3 2 2 1 2 2 2 2 2 1 1 1 1 2 2 2 2 2 2 2 2 2
3 4 5 5 3 4 4 6 3 5 6 7 7 6 5 4 5 5 5 5 4 4 4 4 3 3 2 2 1 1 1 2 2 1 1 1 1 1 1 1 1 2 2 1 2 3 2 2 2
Wind_Direction
220 201 140 71 53 43 323 269 102 74 57 53 74 87 89 83 113 137 135 135 135 143 145 136 129 126 122 117 113 109 104 99 96 96 98 98 98 99 102 103 103 103 103 103 102 101 101 103 103
223 183 66 56 75 42 301 256 100 117 130 108 77 79 79 71 87 109 116 138 141 142 143 136 131 128 124 120 118 114 109 105 102 101 101 101 102 101 103 105 104 105 106 106 107 105 102 100 99
256 173 82 65 86 182 233 225 102 103 118 112 96 61 76 105 111 124 137 141 140 139 139 141 135 131 127 124 121 118 114 111 108 107 105 104 104 105 106 107 107 109 111 110 110 107 105 101 97
72 50 48 59 285 246 217 229 105 93 73 79 99 71 63 99 120 130 137 140 135 136 139 143 137 135 132 129 125 122 120 118 115 112 110 107 108 109 111 112 111 114 117 115 114 111 109 106 99
74 76 57 359 279 260 220 196 103 101 88 87 95 93 72 64 110 125 138 139 137 137 141 142 138 137 137 136 133 129 127 124 122 120 117 115 116 115 114 116 118 118 120 121 119 112 105 108 110
50 68 82 265 279 292 13 108 96 103 112 103 102 104 90 118 124 137 141 138 139 141 142 142 141 140 141 141 139 135 133 130 127 126 125 125 125 126 127 125 128 126 127 131 129 119 108 99 102
116 100 194 230 276 300 240 136 117 124 126 127 123 105 116 137 142 141 139 135 137 140 141 140 146 147 147 145 144 143 140 137 135 134 131 127 127 130 138 136 140 137 140 141 139 136 129 116 103
150 105 302 277 252 259 266 101 118 121 116 126 120 128 156 162 144 135 129 132 136 139 143 143 144 147 149 153 151 150 147 146 145 147 144 140 140 137 143 142 150 152 159 161 158 160 156 146 131
115 82 231 225 207 249 284 87 74 104 110 105 106 139 154 142 135 132 128 127 136 141 146 148 147 150 155 161 163 157 154 152 149 156 154 150 151 157 152 156 158 164 166 169 179 184 182 178 158
116 166 228 212 196 219 234 124 158 99 104 99 94 107 132 138 141 142 145 146 151 154 159 158 156 157 158 167 153 157 159 158 146 143 156 157 148 173 165 182 185 181 181 196 211 215 226 231 159
175 206 230 237 218 189 165 87 115 120 137 153 149 145 145 141 143 147 150 152 158 161 159 164 161 159 163 158 146 149 146 145 146 152 157 149 140 163 175 163 227 232 215 242 307 292 260 242 207
249 262 250 237 217 158 164 153 107 130 178 161 152 149 148 151 156 156 157 159 156 156 162 164 159 155 156 146 152 148 149 160 164 173 157 142 140 155 156 173 201 215 215 208 255 279 282 257 241
253 261 262 234 206 169 122 132 149 159 155 147 145 146 152 157 162 157 156 157 153 160 165 163 157 152 150 141 153 149 161 165 170 160 158 145 145 154 152 169 177 202 177 181 209 258 264 265 242
245 259 264 230 192 181 142 176 114 197 153 148 149 158 161 162 159 151 154 159 158 161 164 160 161 157 150 147 155 155 161 156 151 149 151 154 153 150 143 143 173 197 167 174 168 179 193 247 216
278 308 309 265 207 208 129 317 231 202 154 154 161 163 163 167 164 163 168 166 166 165 162 158 159 152 149 150 161 150 157 145 148 155 150 146 147 148 136 139 161 211 146 100 107 100 86 78 68
347 351 304 281 237 225 133 227 244 196 163 164 171 171 171 176 173 168 166 163 165 162 160 159 157 153 154 153 154 139 143 142 153 151 144 145 141 139 137 141 163 163 94 95 105 83 70 63 78
358 270 258 279 255 203 161 217 235 193 174 178 180 178 175 179 177 171 167 166 167 163 160 157 157 155 158 151 142 133 135 135 148 145 147 150 135 131 132 136 147 117 91 72 94 89 109 100 67
240 238 255 255 259 182 190 221 232 208 181 186 188 183 176 181 189 179 172 167 163 160 158 155 152 153 149 135 121 106 109 128 132 144 153 150 142 131 126 132 132 126 108 81 71 99 84 134 128
225 244 264 262 253 196 213 230 235 221 188 183 182 176 180 187 189 175 170 161 153 149 149 150 148 148 142 136 142 140 161 167 156 159 152 146 130 129 128 125 135 130 138 151 144 119 91 46 65
236 246 266 281 274 194 212 249 247 207 192 184 182 185 179 170 163 170 168 163 164 163 155 151 153 155 158 162 164 159 152 157 161 153 134 141 132 137 137 137 157 157 149 125 132 121 110 185 104
249 222 232 247 300 4 76 325 312 294 68 128 156 166 164 169 170 165 163 168 163 163 162 159 159 160 158 144 122 107 77 57 55 89 151 199 155 148 143 163 167 164 160 182 196 169 151 176 248
247 238 223 230 258 279 139 239 283 265 321 135 163 158 153 155 154 157 149 152 168 169 158 153 152 150 150 140 136 142 146 154 185 179 170 155 115 116 137 160 166 163 166 185 211 188 179 157 192
225 232 220 211 189 291 331 153 275 289 226 221 189 167 146 143 148 149 147 146 150 150 150 150 148 146 145 142 141 144 144 155 143 123 112 137 203 190 183 152 149 159 170 192 217 197 200 179 179
214 33 11 42 72 297 244 172 267 237 214 199 162 136 131 127 128 118 111 117 122 128 127 130 133 140 150 145 140 148 151 149 141 148 166 197 232 264 274 149 158 199 186 194 213 213 212 208 194
112 93 27 352 5 254 250 171 244 253 223 171 152 141 127 124 119 112 110 115 122 132 135 137 131 139 150 146 154 160 158 158 166 175 182 185 201 241 253 225 221 234 230 214 200 204 231 218 205
190 145 161 195 220 265 316 211 266 299 165 130 129 128 120 116 115 116 119 121 124 127 130 134 133 140 139 148 162 158 153 154 164 166 160 177 207 224 233 228 235 246 248 241 216 218 226 226 222
173 184 175 150 185 214 264 259 314 29 75 93 108 117 126 126 117 112 109 115 120 126 131 139 133 123 121 129 134 130 146 145 150 144 142 166 221 240 238 249 249 250 247 244 231 233 232 223 221
169 158 100 120 168 227 255 228 219 184 140 122 127 130 130 127 122 112 105 108 117 126 123 121 126 128 118 114 125 137 156 160 156 152 161 175 221 239 215 240 260 263 259 254 241 245 244 219 226
47 109 118 134 159 163 210 255 217 190 174 164 159 147 148 142 137 128 123 123 117 103 97 102 108 105 100 100 98 105 130 143 151 164 176 182 200 211 215 226 239 247 246 249 238 238 231 226 234
160 171 145 154 213 165 171 252 265 183 174 157 148 143 145 136 126 127 126 118 118 116 112 104 105 104 107 104 103 132 144 130 141 175 202 196 198 212 220 222 228 246 258 250 237 241 235 223 225